When you browse on this site, cookies collect data to enhance your experience and personalize the content and advertising you see.
Visit our Privacy Policy to learn more. By continuing to use the site, you agree to this use of cookies and data.
  • Em Portugal
  • Lista de países
  • Para 7 dias
  • Temperatura da água
  • Mapas de satélite
  • Mapa do tempo
  • Widgets de tempo
  • user-avatar
    Iniciar Sessão

    Previsão horária em Otoka

    Hoje, 19 Junho, Quarta-feira

    Tempo Temperatura Precipitação Vento Pressão Humidade
    00:00 +19°C° 0 mm 3 m/s 744 mmHg 95%
    01:00 +19°C° 0 mm 3 m/s 743 mmHg 96%
    02:00 +18°C° 0 mm 3 m/s 743 mmHg 96%
    03:00 +18°C° 0 mm 3 m/s 743 mmHg 96%
    04:00 +18°C° 0 mm 3 m/s 743 mmHg 96%
    05:00 +19°C° 0 mm 3 m/s 743 mmHg 92%
    06:00 +21°C° 0 mm 3 m/s 743 mmHg 88%
    07:00 +22°C° 0 mm 3 m/s 743 mmHg 84%
    08:00 +24°C° 0.4 mm 2 m/s 743 mmHg 80%
    09:00 +26°C° 0.4 mm 2 m/s 742 mmHg 76%
    10:00 +27°C° 0.4 mm 2 m/s 742 mmHg 72%
    11:00 +28°C° 0.4 mm 2 m/s 742 mmHg 68%
    12:00 +28°C° 0.4 mm 2 m/s 742 mmHg 64%
    13:00 +29°C° 0.4 mm 2 m/s 741 mmHg 61%
    14:00 +29°C° 0.1 mm 2 m/s 741 mmHg 61%
    15:00 +29°C° 0.1 mm 2 m/s 741 mmHg 62%
    16:00 +29°C° 0.1 mm 2 m/s 740 mmHg 63%
    17:00 +28°C° 0.3 mm 2 m/s 740 mmHg 69%
    18:00 +26°C° 0.3 mm 2 m/s 740 mmHg 76%
    19:00 +25°C° 0.3 mm 2 m/s 740 mmHg 82%
    20:00 +24°C° 0 mm 2 m/s 740 mmHg 84%
    21:00 +23°C° 0 mm 2 m/s 740 mmHg 86%
    22:00 +21°C° 0 mm 2 m/s 740 mmHg 87%
    23:00 +20°C° 0 mm 2 m/s 740 mmHg 88%

    Amanhã, 20 Junho, Quinta-feira

    Tempo Temperatura Precipitação Vento Pressão Humidade
    00:00 +20°C° 0 mm 2 m/s 740 mmHg 89%
    01:00 +20°C° 0 mm 2 m/s 740 mmHg 89%
    02:00 +19°C° 0 mm 2 m/s 740 mmHg 90%
    03:00 +20°C° 0 mm 1 m/s 740 mmHg 90%
    04:00 +20°C° 0 mm 1 m/s 740 mmHg 90%
    05:00 +22°C° 0 mm 1 m/s 740 mmHg 86%
    06:00 +23°C° 0 mm 2 m/s 740 mmHg 82%
    07:00 +25°C° 0 mm 2 m/s 740 mmHg 78%
    08:00 +25°C° 0 mm 2 m/s 740 mmHg 76%
    09:00 +26°C° 0 mm 2 m/s 740 mmHg 75%
    10:00 +26°C° 0 mm 3 m/s 740 mmHg 74%
    11:00 +27°C° 0.1 mm 3 m/s 740 mmHg 68%
    12:00 +29°C° 0.1 mm 3 m/s 740 mmHg 63%
    13:00 +30°C° 0.1 mm 4 m/s 740 mmHg 58%
    14:00 +29°C° 0.5 mm 3 m/s 740 mmHg 62%
    15:00 +29°C° 0.5 mm 3 m/s 740 mmHg 66%
    16:00 +28°C° 0.5 mm 3 m/s 740 mmHg 70%
    17:00 +27°C° 0.6 mm 2 m/s 740 mmHg 74%
    18:00 +26°C° 0.6 mm 2 m/s 740 mmHg 78%
    19:00 +24°C° 0.6 mm 1 m/s 740 mmHg 82%
    20:00 +23°C° 0.1 mm 1 m/s 740 mmHg 84%
    21:00 +23°C° 0.1 mm 2 m/s 740 mmHg 85%
    22:00 +21°C° 0.1 mm 2 m/s 740 mmHg 86%
    23:00 +20°C° 0 mm 2 m/s 740 mmHg 87%

    Depois de amanhã, 21 Junho, Sexta-feira

    Tempo Temperatura Precipitação Vento Pressão Humidade
    00:00 +21°C° 0 mm 1 m/s 740 mmHg 88%
    01:00 +21°C° 0 mm 1 m/s 740 mmHg 88%
    02:00 +20°C° 0 mm 1 m/s 740 mmHg 89%
    03:00 +20°C° 0 mm 1 m/s 741 mmHg 89%
    04:00 +18°C° 0 mm 0 m/s 741 mmHg 90%
    05:00 +21°C° 0 mm 1 m/s 741 mmHg 87%
    06:00 +22°C° 0 mm 1 m/s 741 mmHg 84%
    07:00 +24°C° 0 mm 2 m/s 741 mmHg 81%
    08:00 +25°C° 0 mm 1 m/s 741 mmHg 76%
    09:00 +26°C° 0 mm 1 m/s 741 mmHg 72%
    10:00 +27°C° 0 mm 1 m/s 741 mmHg 67%
    11:00 +28°C° 0.7 mm 1 m/s 741 mmHg 65%
    12:00 +28°C° 0.7 mm 1 m/s 741 mmHg 63%
    13:00 +29°C° 0.7 mm 1 m/s 741 mmHg 61%
    14:00 +29°C° 0.4 mm 1 m/s 741 mmHg 61%
    15:00 +29°C° 0.4 mm 1 m/s 741 mmHg 62%
    16:00 +29°C° 0.4 mm 1 m/s 741 mmHg 63%
    17:00 +27°C° 0.5 mm 1 m/s 741 mmHg 69%
    18:00 +26°C° 0.5 mm 1 m/s 741 mmHg 75%
    19:00 +25°C° 0.5 mm 1 m/s 741 mmHg 81%
    20:00 +24°C° 0.2 mm 1 m/s 741 mmHg 82%
    21:00 +23°C° 0.2 mm 1 m/s 741 mmHg 82%
    22:00 +23°C° 0.2 mm 1 m/s 741 mmHg 83%
    23:00 +22°C° 0 mm 1 m/s 741 mmHg 85%

    22 Junho, Sábado

    Tempo Temperatura Precipitação Vento Pressão Humidade
    00:00 +21°C° 0 mm 1 m/s 741 mmHg 87%
    01:00 +21°C° 0 mm 1 m/s 741 mmHg 89%
    02:00 +21°C° 0.2 mm 1 m/s 742 mmHg 90%
    03:00 +21°C° 0.2 mm 1 m/s 742 mmHg 92%
    04:00 +20°C° 0.2 mm 1 m/s 742 mmHg 94%
    05:00 +20°C° 0.6 mm 2 m/s 742 mmHg 94%
    06:00 +20°C° 0.6 mm 2 m/s 742 mmHg 95%
    07:00 +20°C° 0.6 mm 2 m/s 742 mmHg 96%
    08:00 +20°C° 0.3 mm 2 m/s 742 mmHg 95%
    09:00 +20°C° 0.3 mm 2 m/s 742 mmHg 95%
    10:00 +20°C° 0.3 mm 2 m/s 742 mmHg 95%
    11:00 +23°C° 0.6 mm 2 m/s 742 mmHg 90%
    12:00 +24°C° 0.6 mm 2 m/s 742 mmHg 86%
    13:00 +25°C° 0.6 mm 1 m/s 742 mmHg 81%
    14:00 +24°C° 0.8 mm 1 m/s 742 mmHg 83%
    15:00 +24°C° 0.8 mm 2 m/s 742 mmHg 85%
    16:00 +24°C° 0.8 mm 2 m/s 741 mmHg 86%
    17:00 +23°C° 0.3 mm 2 m/s 741 mmHg 88%
    18:00 +21°C° 0.3 mm 2 m/s 741 mmHg 89%
    19:00 +21°C° 0.3 mm 2 m/s 741 mmHg 90%
    20:00 +21°C° 0 mm 1 m/s 741 mmHg 91%
    21:00 +21°C° 0 mm 1 m/s 741 mmHg 91%
    22:00 +20°C° 0 mm 1 m/s 741 mmHg 91%
    23:00 +20°C° 0 mm 1 m/s 741 mmHg 92%

    23 Junho, Domingo

    Tempo Temperatura Precipitação Vento Pressão Humidade
    00:00 +20°C° 0 mm 1 m/s 741 mmHg 93%
    01:00 +20°C° 0 mm 1 m/s 741 mmHg 94%
    02:00 +19°C° 0 mm 1 m/s 741 mmHg 95%
    03:00 +19°C° 0 mm 1 m/s 741 mmHg 96%
    04:00 +19°C° 0 mm 1 m/s 740 mmHg 97%
    05:00 +19°C° 0 mm 2 m/s 741 mmHg 94%
    06:00 +20°C° 0 mm 2 m/s 741 mmHg 91%
    07:00 +21°C° 0 mm 2 m/s 741 mmHg 88%
    08:00 +24°C° 0 mm 2 m/s 741 mmHg 82%
    09:00 +25°C° 0 mm 3 m/s 741 mmHg 77%
    10:00 +26°C° 0 mm 3 m/s 741 mmHg 72%
    11:00 +26°C° 0.5 mm 4 m/s 741 mmHg 74%
    12:00 +26°C° 0.5 mm 5 m/s 741 mmHg 75%
    13:00 +26°C° 0.5 mm 6 m/s 741 mmHg 76%
    14:00 +23°C° 0.6 mm 6 m/s 741 mmHg 80%
    15:00 +21°C° 0.6 mm 6 m/s 741 mmHg 83%
    16:00 +20°C° 0.6 mm 6 m/s 741 mmHg 87%
    17:00 +19°C° 0 mm 6 m/s 741 mmHg 86%
    18:00 +17°C° 0 mm 6 m/s 742 mmHg 86%
    19:00 +16°C° 0 mm 6 m/s 742 mmHg 86%
    20:00 +16°C° 0 mm 6 m/s 742 mmHg 86%
    21:00 +16°C° 0 mm 6 m/s 743 mmHg 87%
    22:00 +16°C° 0 mm 6 m/s 743 mmHg 88%
    23:00 +16°C° 0.2 mm 6 m/s 743 mmHg 90%

    24 Junho, Segunda-feira

    Tempo Temperatura Precipitação Vento Pressão Humidade
    00:00 +15°C° 0.2 mm 5 m/s 743 mmHg 92%
    01:00 +15°C° 0.2 mm 5 m/s 744 mmHg 95%
    02:00 +15°C° 0.9 mm 6 m/s 744 mmHg 95%
    03:00 +15°C° 0.9 mm 6 m/s 744 mmHg 96%
    04:00 +15°C° 0.9 mm 6 m/s 744 mmHg 96%
    05:00 +14°C° 1.1 mm 6 m/s 745 mmHg 96%
    06:00 +14°C° 1.1 mm 6 m/s 745 mmHg 95%
    07:00 +14°C° 1.1 mm 7 m/s 745 mmHg 95%
    08:00 +14°C° 0.5 mm 6 m/s 746 mmHg 95%
    09:00 +14°C° 0.5 mm 6 m/s 746 mmHg 95%
    10:00 +14°C° 0.5 mm 6 m/s 747 mmHg 95%
    11:00 +14°C° 0.1 mm 6 m/s 747 mmHg 93%
    12:00 +14°C° 0.1 mm 5 m/s 747 mmHg 92%
    13:00 +15°C° 0.1 mm 4 m/s 748 mmHg 90%
    14:00 +17°C° 0 mm 4 m/s 748 mmHg 85%
    15:00 +18°C° 0 mm 4 m/s 748 mmHg 80%
    16:00 +19°C° 0 mm 5 m/s 748 mmHg 74%
    17:00 +19°C° 0 mm 4 m/s 748 mmHg 76%
    18:00 +18°C° 0 mm 3 m/s 748 mmHg 78%
    19:00 +18°C° 0 mm 2 m/s 748 mmHg 79%
    20:00 +17°C° 0 mm 3 m/s 749 mmHg 81%
    21:00 +16°C° 0 mm 3 m/s 749 mmHg 83%
    22:00 +14°C° 0 mm 3 m/s 749 mmHg 85%
    23:00 +13°C° 0 mm 3 m/s 750 mmHg 86%
    Mostrar mais